Hourly Data Report for October 02, 2022

HAMILTON A
ONTARIO
Current Station Operator: NAVCAN

43°10'25.000" N
79°56'06.000" W
237.70 m
6153193
71263
YHM

Download Data

Hourly Data (October 2022)
Hourly Data Report for October 2, 2022
TIME
LST
Temp Definition
°C
Dew Point Definition
°C
Rel Hum Definition
%
Precip. Amount Definition
mm

Wind Dir Definition
10's deg

Wind Spd Definition
km/h
Visibility Definition
km
Stn Press Definition
kPa
Hmdx Definition


Wind Chill Definition


Weather Definition


00:00 12.7 8.9 77   4 28 24.1 99.42     LegendNANA
01:00 12.0 7.5 74   4 36 24.1 99.42     Mostly Cloudy
02:00 11.4 5.9 69   4 32 24.1 99.45     LegendNANA
03:00 10.9 4.9 66   4 28 24.1 99.49     LegendNANA
04:00 10.3 4.0 65   5 36 24.1 99.52     Cloudy
05:00 9.4 3.4 66   4 30 24.1 99.57     LegendNANA
06:00 8.8 3.2 68   4 36 24.1 99.67     LegendNANA
07:00 8.2 3.0 69   3 35 24.1 99.73     Mostly Cloudy
08:00 7.9 2.5 68   3 40 24.1 99.78     LegendNANA
09:00 8.7 2.7 66   4 37 24.1 99.83     LegendNANA
10:00 8.5 3.1 68   4 35 24.1 99.88     Mainly Clear
11:00 10.1 3.4 63   3 35 24.1 99.89     LegendNANA
12:00 11.2 3.5 59   4 27 24.1 99.88     LegendNANA
13:00 12.0 2.6 52   5 32 24.1 99.86     Clear
14:00 13.2 -0.2 40   4 29 24.1 99.82     LegendNANA
15:00 13.9 0.3 39   5 25 24.1 99.80     LegendNANA
16:00 13.3 2.1 47   6 27 24.1 99.82     Mainly Clear
17:00 11.9 2.1 51   5 16 24.1 99.86     LegendNANA
18:00 8.1 2.0 65   6 10 24.1 99.90     LegendNANA
19:00 7.8 2.1 67   3 5 24.1 99.93     Clear
20:00 6.2 2.5 77   35 7 24.1 99.96     LegendNANA
21:00 6.3 2.0 74   3 9 24.1 99.96     LegendNANA
22:00 5.0 1.6 79   35 6 24.1 99.97     Clear
23:00 5.5 3.1 85   35 9 24.1 100.00     LegendNANA

Notes on Data Quality.

Legend

  • E = Estimated
  • M = Missing
  • NA = Not Available*
  • [empty] = Indicates an unobserved value
Date modified: